Regional Weather Roundup
Issued by NWS

Home | Current Version | Previous Version | Text Only | Print | Product List | Glossary Off
Versions: 1 2 3 4 5 6 7 8 9 10 11 12 13 14 15 16 17 18 19 20 21 22 23 24 25 26 27 28 29 30 31 32 33 34 35 36 37 38 39 40 41 42 43 44 45 46 47 48 49 50

000
ASUS45 KABQ 290101
RWRNM
NEW MEXICO REGIONAL WEATHER ROUNDUP
NATIONAL WEATHER SERVICE ALBUQUERQUE NM
700 PM MDT WED SEP 28 2016

NOTE: "FAIR" MEANS FEW OR NO CLOUDS BELOW 12,000 FEET AGL WITH NO
       SIGNIFICANT WEATHER OR OBSTRUCTIONS TO VISION.

      THIS PRODUCT IS RELEASED AS TWO VERSIONS.  ONE VERSION NEAR
      THE TOP OF THE HOUR CONTAINING PRELIMINARY DATA FROM ALBUQUERQUE
      AND OTHER STATIONS.  A FINAL VERSION WITH ADDITIONAL DATA IS
      ISSUED ABOUT 10 MINUTES AFTER THE HOUR.

NMZ501-503-504-510>518-290200-
NORTHWEST PLATEAU/NORTHCENTRAL MOUNTAINS

CITY           SKY/WX    TMP DP  RH WIND       PRES   REMARKS
FARMINGTON     FAIR      74  37  26 W10       30.23R
LOS ALAMOS     FAIR      71  26  18 S10       30.39R
SANTA FE       FAIR      73  27  18 SE12      30.32R
TAOS           FAIR      66  21  18 SE13      30.40

$$
NMZ402-403-502-505>509-290200-
WESTCENTRAL MOUNTAINS/SOUTHWEST MOUNTAINS

CITY           SKY/WX    TMP DP  RH WIND       PRES   REMARKS
GALLUP         CLOUDY    69  43  38 NE13      30.31S
SILVER CITY    FAIR      71  49  45 SE7       30.27S THUNDER

$$
NMZ407-409-411-412-290200-
SOUTHERN DESERTS

CITY           SKY/WX    TMP DP  RH WIND       PRES   REMARKS
DEMING         FAIR      76  52  43 E7        30.19S
LAS CRUCES     FAIR      76  53  44 CALM      30.21S
HOLLOMAN AFB   FAIR      78  52  39 N3        30.16S
ALAMOGORDO     FAIR      77  50  38 NE3       30.19S
T OR C         FAIR      78  47  33 SW10      30.21S

$$
NMZ519>523-290200-
CENTRAL VALLEYS/CENTRAL HIGHLANDS

CITY           SKY/WX    TMP DP  RH WIND       PRES   REMARKS
ALBUQUERQUE    MOCLDY    78  43  28 S3        30.25R
DOUBLE EAGLE   MOCLDY    73  43  33 VRB3      30.28R
CLINES CORNERS FAIR      64  32  30 SE8       30.40R
BELEN          FAIR      77  40  26 CALM      30.23S
SOCORRO        FAIR      79  38  23 S6        30.20S

$$
NMZ524>526-539-540-290200-
SOUTHCENTRAL MOUNTAINS

CITY           SKY/WX    TMP DP  RH WIND       PRES   REMARKS
RUIDOSO        FAIR      64  37  36 SE6       30.40R

$$
NMZ527>531-290200-
NORTHEAST HIGHLANDS/NORTHEAST PLAINS

CITY           SKY/WX    TMP DP  RH WIND       PRES   REMARKS
LAS VEGAS      FAIR      66  27  23 SE12      30.40R
RATON          FAIR      64  30  27 SE9       30.37R
CLAYTON        FAIR      68  37  32 SE6       30.30R

$$
NMZ532>537-290200-
EASTCENTRAL PLAINS

CITY           SKY/WX    TMP DP  RH WIND       PRES   REMARKS
TUCUMCARI      FAIR      74  36  25 E6        30.21R
CANNON AFB     NOT AVBL
CLOVIS AIRPORT FAIR      70  45  40 SE5       30.24S

$$
NMZ028-029-538-290200-
SOUTHEAST PLAINS

CITY           SKY/WX    TMP DP  RH WIND       PRES   REMARKS
ROSWELL        FAIR      73  48  41 S7        30.18R
ARTESIA        FAIR      75  52  43 W5        30.18S
CARLSBAD       FAIR      71  59  65 SW5       30.16R
HOBBS          FAIR      70  48  46 E7        30.21R


$$



USA.gov is the U.S. government's official web portal to all federal, state and local government web resources and services.